| time (UTC) | temp F | wind direction | speed MPH | gust MPH | rain 1hr in | rain 24hr in | rain mn in | humidity % | barometer mb |
| 20260507234504 | 64 | 52 | 2.0 | 3.0 | 0.00 | 0.04 | 0.00 | 65 | 1013.2 |
| 20260507233604 | 64 | 53 | 2.0 | 4.0 | 0.00 | 0.04 | 0.00 | 64 | 1013.2 |
| 20260507232704 | 64 | 50 | 2.0 | 4.0 | 0.00 | 0.04 | 0.00 | 64 | 1013.2 |
| 20260507231806 | 63 | 52 | 2.0 | 4.0 | 0.00 | 0.04 | 0.00 | 66 | 1013.3 |
| 20260507230906 | 64 | 31 | 2.0 | 4.0 | 0.00 | 0.04 | 0.00 | 66 | 1013.5 |
| 20260507230005 | 63 | 27 | 2.0 | 4.0 | 0.00 | 0.04 | 0.00 | 67 | 1013.6 |
| 20260507225405 | 63 | 32 | 2.0 | 4.0 | 0.00 | 0.04 | 0.00 | 67 | 1013.6 |
| 20260507224505 | 63 | 21 | 2.0 | 3.0 | 0.00 | 0.04 | 0.00 | 67 | 1013.7 |
| 20260507223605 | 63 | 22 | 2.0 | 3.0 | 0.00 | 0.04 | 0.00 | 67 | 1013.8 |
| 20260507222727 | 63 | 23 | 2.0 | 3.0 | 0.00 | 0.04 | 0.00 | 65 | 1013.9 |
| 20260507221805 | 63 | 24 | 2.0 | 3.0 | 0.00 | 0.04 | 0.00 | 65 | 1013.9 |
| 20260507220904 | 63 | 14 | 2.0 | 3.0 | 0.00 | 0.04 | 0.00 | 64 | 1013.9 |
| 20260507220025 | 64 | 10 | 2.0 | 3.0 | 0.00 | 0.04 | 0.00 | 64 | 1014.0 |
| 20260507215406 | 64 | 12 | 2.0 | 5.0 | 0.00 | 0.04 | 0.04 | 63 | 1013.9 |
| 20260507214505 | 64 | 5 | 2.0 | 5.0 | 0.00 | 0.04 | 0.04 | 63 | 1014.0 |
| 20260507213604 | 64 | 23 | 2.0 | 4.0 | 0.00 | 0.04 | 0.04 | 62 | 1014.2 |
| 20260507212705 | 64 | 6 | 2.0 | 8.0 | 0.00 | 0.04 | 0.04 | 62 | 1014.4 |
| 20260507211826 | 64 | 4 | 3.0 | 6.0 | 0.00 | 0.04 | 0.04 | 63 | 1014.3 |
| 20260507210905 | 63 | 357 | 3.0 | 8.0 | 0.00 | 0.04 | 0.04 | 65 | 1014.4 |
| 20260507210005 | 62 | 342 | 2.0 | 4.0 | 0.00 | 0.04 | 0.04 | 68 | 1014.6 |
| 20260507205425 | 62 | 330 | 2.0 | 4.0 | 0.00 | 0.04 | 0.04 | 68 | 1014.4 |
| 20260507204505 | 63 | 270 | 2.0 | 6.0 | 0.00 | 0.04 | 0.04 | 66 | 1014.6 |
| 20260507203610 | 63 | 296 | 3.0 | 7.0 | 0.00 | 0.04 | 0.04 | 65 | 1014.4 |
| 20260507202704 | 63 | 320 | 4.0 | 8.0 | 0.00 | 0.04 | 0.04 | 65 | 1014.5 |
| 20260507201805 | 62 | 338 | 3.0 | 6.0 | 0.00 | 0.04 | 0.04 | 69 | 1014.4 |
| 20260507200904 | 62 | 328 | 3.0 | 6.0 | 0.00 | 0.04 | 0.04 | 71 | 1014.6 |
| 20260507200007 | 62 | 336 | 3.0 | 6.0 | 0.00 | 0.05 | 0.04 | 73 | 1014.6 |
| 20260507195404 | 62 | 351 | 1.0 | 6.0 | 0.00 | 0.05 | 0.04 | 72 | 1014.8 |
| 20260507194526 | 62 | 18 | 1.0 | 5.0 | 0.00 | 0.05 | 0.04 | 76 | 1014.7 |
| 20260507193605 | 62 | 16 | 1.0 | 5.0 | 0.00 | 0.05 | 0.04 | 79 | 1014.8 |
| 20260507192704 | 62 | 21 | 1.0 | 3.0 | 0.00 | 0.05 | 0.04 | 82 | 1014.7 |
| 20260507191805 | 62 | 20 | 2.0 | 3.0 | 0.00 | 0.05 | 0.04 | 83 | 1014.6 |
| 20260507190904 | 62 | 16 | 2.0 | 3.0 | 0.00 | 0.05 | 0.04 | 86 | 1014.5 |
| 20260507190026 | 62 | 18 | 2.0 | 3.0 | 0.00 | 0.05 | 0.04 | 86 | 1014.5 |
| 20260507185406 | 61 | 18 | 2.0 | 3.0 | 0.00 | 0.05 | 0.04 | 86 | 1014.6 |
| 20260507184504 | 61 | 20 | 2.0 | 3.0 | 0.00 | 0.05 | 0.04 | 86 | 1014.5 |
| 20260507183605 | 61 | 17 | 2.0 | 3.0 | 0.00 | 0.05 | 0.04 | 86 | 1014.4 |
| 20260507182705 | 62 | 11 | 1.0 | 3.0 | 0.00 | 0.05 | 0.04 | 85 | 1014.6 |
| 20260507181805 | 62 | 16 | 2.0 | 3.0 | 0.00 | 0.05 | 0.04 | 86 | 1014.5 |
| 20260507180925 | 62 | 8 | 1.0 | 2.0 | 0.00 | 0.05 | 0.04 | 85 | 1014.6 |
| 20260507180026 | 63 | 5 | 2.0 | 2.0 | 0.00 | 0.05 | 0.04 | 84 | 1014.6 |
| 20260507175404 | 63 | 16 | 1.0 | 2.0 | 0.00 | 0.05 | 0.04 | 83 | 1014.6 |
| 20260507174505 | 64 | 15 | 1.0 | 2.0 | 0.00 | 0.05 | 0.04 | 82 | 1014.7 |
| 20260507173628 | 64 | 356 | 1.0 | 3.0 | 0.00 | 0.05 | 0.04 | 81 | 1014.7 |
| 20260507172704 | 64 | 344 | 1.0 | 4.0 | 0.00 | 0.05 | 0.04 | 80 | 1014.8 |
| 20260507171825 | 64 | 306 | 3.0 | 5.0 | 0.00 | 0.05 | 0.04 | 79 | 1014.9 |
| 20260507170904 | 65 | 289 | 3.0 | 7.0 | 0.00 | 0.05 | 0.04 | 80 | 1014.8 |
| 20260507170005 | 65 | 289 | 4.0 | 9.0 | 0.00 | 0.05 | 0.04 | 79 | 1014.9 |
| 20260507165404 | 65 | 286 | 4.0 | 9.0 | 0.00 | 0.05 | 0.04 | 80 | 1014.8 |
| 20260507164504 | 66 | 265 | 3.0 | 7.0 | 0.00 | 0.05 | 0.04 | 81 | 1014.9 |
| 20260507163604 | 66 | 248 | 3.0 | 7.0 | 0.00 | 0.05 | 0.04 | 81 | 1014.7 |
| 20260507162704 | 66 | 248 | 3.0 | 8.0 | 0.00 | 0.05 | 0.04 | 81 | 1014.6 |
| 20260507161804 | 66 | 283 | 4.0 | 8.0 | 0.00 | 0.05 | 0.04 | 79 | 1014.8 |
| 20260507160941 | 67 | 257 | 3.0 | 7.0 | 0.00 | 0.05 | 0.04 | 80 | 1014.7 |
| 20260507160025 | 67 | 246 | 3.0 | 8.0 | 0.00 | 0.05 | 0.04 | 78 | 1014.7 |
| 20260507155408 | 67 | 266 | 4.0 | 9.0 | 0.00 | 0.05 | 0.04 | 77 | 1014.7 |
| 20260507154511 | 67 | 279 | 4.0 | 9.0 | 0.00 | 0.05 | 0.04 | 77 | 1014.6 |
| 20260507153626 | 67 | 272 | 6.0 | 9.0 | 0.00 | 0.05 | 0.04 | 79 | 1014.8 |
| 20260507152704 | 67 | 267 | 4.0 | 9.0 | 0.00 | 0.05 | 0.04 | 75 | 1014.7 |
| 20260507151804 | 69 | 255 | 2.0 | 9.0 | 0.00 | 0.05 | 0.04 | 70 | 1014.7 |
| 20260507150904 | 69 | 306 | 3.0 | 9.0 | 0.00 | 0.05 | 0.04 | 66 | 1014.8 |
| 20260507150004 | 69 | 325 | 3.0 | 9.0 | 0.00 | 0.05 | 0.04 | 65 | 1015.1 |
| 20260507145404 | 69 | 320 | 3.0 | 9.0 | 0.00 | 0.05 | 0.04 | 64 | 1014.8 |
| 20260507144511 | 69 | 324 | 2.0 | 7.0 | 0.00 | 0.05 | 0.04 | 62 | 1014.8 |
| 20260507143604 | 69 | 306 | 2.0 | 5.0 | 0.00 | 0.05 | 0.04 | 65 | 1015.1 |
| 20260507142704 | 68 | 301 | 2.0 | 7.0 | 0.00 | 0.05 | 0.04 | 72 | 1014.8 |
| 20260507141804 | 69 | 283 | 4.0 | 10.0 | 0.00 | 0.05 | 0.04 | 69 | 1014.8 |
| 20260507140925 | 67 | 259 | 3.0 | 9.0 | 0.00 | 0.05 | 0.04 | 73 | 1015.3 |
| 20260507140005 | 67 | 232 | 3.0 | 6.0 | 0.00 | 0.05 | 0.04 | 74 | 1015.3 |
| 20260507135426 | 66 | 173 | 3.0 | 6.0 | 0.00 | 0.05 | 0.04 | 75 | 1015.6 |
| 20260507134503 | 66 | 201 | 2.0 | 6.0 | 0.00 | 0.05 | 0.04 | 75 | 1015.5 |
| 20260507133605 | 66 | 246 | 3.0 | 6.0 | 0.00 | 0.05 | 0.04 | 76 | 1015.9 |
| 20260507132704 | 66 | 257 | 3.0 | 7.0 | 0.00 | 0.05 | 0.04 | 76 | 1016.1 |
| 20260507131804 | 66 | 259 | 4.0 | 7.0 | 0.00 | 0.05 | 0.04 | 74 | 1015.9 |
| 20260507130905 | 66 | 238 | 4.0 | 12.0 | 0.00 | 0.05 | 0.04 | 75 | 1016.2 |
| 20260507130006 | 66 | 262 | 5.0 | 12.0 | 0.00 | 0.05 | 0.04 | 71 | 1016.0 |
| 20260507125404 | 66 | 248 | 4.0 | 11.0 | 0.00 | 0.05 | 0.04 | 72 | 1016.2 |
| 20260507124504 | 67 | 176 | 3.0 | 8.0 | 0.00 | 0.05 | 0.04 | 70 | 1016.0 |
| 20260507123604 | 68 | 306 | 3.0 | 8.0 | 0.00 | 0.05 | 0.04 | 65 | 1016.2 |
| 20260507122705 | 68 | 258 | 4.0 | 9.0 | 0.00 | 0.05 | 0.04 | 58 | 1016.1 |
| 20260507121804 | 68 | 328 | 3.0 | 9.0 | 0.00 | 0.05 | 0.04 | 61 | 1016.2 |
| 20260507120904 | 67 | 307 | 3.0 | 8.0 | 0.00 | 0.05 | 0.04 | 69 | 1016.3 |
| 20260507120005 | 68 | 312 | 3.0 | 6.0 | 0.00 | 0.05 | 0.04 | 67 | 1016.1 |
| 20260507115403 | 67 | 310 | 3.0 | 7.0 | 0.00 | 0.05 | 0.04 | 67 | 1016.1 |
| 20260507114525 | 67 | 320 | 3.0 | 7.0 | 0.00 | 0.05 | 0.04 | 69 | 1016.5 |
| 20260507113626 | 66 | 327 | 3.0 | 10.0 | 0.00 | 0.05 | 0.04 | 71 | 1016.3 |
| 20260507112704 | 67 | 355 | 2.0 | 5.0 | 0.00 | 0.05 | 0.04 | 70 | 1016.5 |
| 20260507111825 | 66 | 324 | 4.0 | 9.0 | 0.00 | 0.05 | 0.04 | 72 | 1016.7 |
| 20260507110904 | 65 | 332 | 3.0 | 9.0 | 0.00 | 0.05 | 0.04 | 73 | 1016.6 |
| 20260507110004 | 65 | 337 | 3.0 | 8.0 | 0.00 | 0.05 | 0.04 | 73 | 1016.6 |
| 20260507104505 | 65 | 333 | 2.0 | 7.0 | 0.00 | 0.05 | 0.04 | 74 | 1016.7 |
| 20260507103604 | 64 | 334 | 3.0 | 9.0 | 0.00 | 0.05 | 0.04 | 74 | 1016.6 |
| 20260507102745 | 65 | 323 | 3.0 | 9.0 | 0.00 | 0.05 | 0.04 | 73 | 1016.8 |
| 20260507101804 | 64 | 340 | 3.0 | 6.0 | 0.00 | 0.05 | 0.04 | 74 | 1017.0 |
| 20260507100903 | 64 | 359 | 1.0 | 6.0 | 0.00 | 0.05 | 0.04 | 73 | 1017.2 |
| 20260507100004 | 64 | 337 | 3.0 | 9.0 | 0.00 | 0.05 | 0.04 | 75 | 1017.0 |
| 20260507095404 | 62 | 332 | 4.0 | 9.0 | 0.00 | 0.05 | 0.04 | 77 | 1016.9 |
| 20260507094504 | 62 | 324 | 3.0 | 9.0 | 0.00 | 0.05 | 0.04 | 77 | 1017.0 |
| 20260507093605 | 62 | 324 | 4.0 | 7.0 | 0.00 | 0.05 | 0.04 | 79 | 1017.0 |
| 20260507092703 | 62 | 322 | 3.0 | 7.0 | 0.00 | 0.05 | 0.04 | 78 | 1017.0 |
| 20260507091803 | 62 | 311 | 3.0 | 8.0 | 0.00 | 0.05 | 0.04 | 79 | 1016.9 |
| 20260507090925 | 61 | 330 | 4.0 | 8.0 | 0.00 | 0.05 | 0.04 | 79 | 1016.8 |
| 20260507090027 | 62 | 310 | 3.0 | 8.0 | 0.00 | 0.05 | 0.04 | 78 | 1016.7 |
| 20260507085430 | 61 | 298 | 4.0 | 8.0 | 0.00 | 0.05 | 0.04 | 79 | 1016.8 |
| 20260507084504 | 61 | 330 | 3.0 | 8.0 | 0.00 | 0.05 | 0.04 | 79 | 1016.8 |
| 20260507083603 | 60 | 333 | 3.0 | 12.0 | 0.00 | 0.05 | 0.04 | 80 | 1016.7 |
| 20260507082703 | 60 | 336 | 2.0 | 7.0 | 0.00 | 0.05 | 0.04 | 79 | 1016.8 |
| 20260507081805 | 59 | 348 | 3.0 | 9.0 | 0.00 | 0.05 | 0.04 | 81 | 1016.8 |
| 20260507080904 | 60 | 345 | 2.0 | 6.0 | 0.00 | 0.05 | 0.04 | 78 | 1016.6 |
| 20260507080005 | 60 | 25 | 2.0 | 5.0 | 0.00 | 0.05 | 0.04 | 80 | 1017.0 |
| 20260507075403 | 61 | 356 | 2.0 | 4.0 | 0.00 | 0.05 | 0.04 | 79 | 1017.0 |
| 20260507074503 | 61 | 75 | 1.0 | 4.0 | 0.00 | 0.05 | 0.04 | 79 | 1016.8 |
| 20260507073603 | 61 | 339 | 1.0 | 3.0 | 0.00 | 0.05 | 0.04 | 79 | 1017.0 |
| 20260507072703 | 60 | 111 | 2.0 | 5.0 | 0.00 | 0.05 | 0.04 | 78 | 1017.0 |
| 20260507071803 | 60 | 163 | 2.0 | 5.0 | 0.00 | 0.05 | 0.04 | 78 | 1016.9 |
| 20260507070903 | 58 | 253 | 1.0 | 3.0 | 0.00 | 0.05 | 0.04 | 82 | 1017.4 |
| 20260507070009 | 58 | 241 | 1.0 | 4.0 | 0.00 | 0.05 | 0.04 | 84 | 1017.4 |
| 20260507065403 | 58 | 189 | 1.0 | 3.0 | 0.00 | 0.05 | 0.04 | 82 | 1017.1 |
| 20260507064503 | 58 | 129 | 2.0 | 5.0 | 0.00 | 0.05 | 0.04 | 83 | 1016.9 |
| 20260507063625 | 58 | 134 | 3.0 | 5.0 | 0.00 | 0.05 | 0.04 | 82 | 1016.8 |
| 20260507062703 | 59 | 121 | 3.0 | 6.0 | 0.00 | 0.06 | 0.04 | 82 | 1016.8 |
| 20260507061803 | 58 | 115 | 3.0 | 5.0 | 0.00 | 0.06 | 0.04 | 82 | 1016.6 |
| 20260507060903 | 58 | 111 | 2.0 | 5.0 | 0.00 | 0.06 | 0.04 | 84 | 1016.8 |
| 20260507060003 | 57 | 125 | 3.0 | 5.0 | 0.00 | 0.06 | 0.04 | 85 | 1016.4 |
| 20260507055403 | 57 | 125 | 3.0 | 6.0 | 0.00 | 0.06 | 0.04 | 85 | 1016.6 |
| 20260507054506 | 56 | 111 | 3.0 | 6.0 | 0.00 | 0.06 | 0.04 | 87 | 1016.6 |
| 20260507053604 | 55 | 102 | 3.0 | 6.0 | 0.00 | 0.06 | 0.04 | 89 | 1016.7 |
| 20260507052729 | 55 | 97 | 4.0 | 7.0 | 0.00 | 0.06 | 0.04 | 89 | 1016.5 |
| 20260507051805 | 54 | 97 | 5.0 | 8.0 | 0.00 | 0.06 | 0.04 | 90 | 1016.4 |
| 20260507050907 | 54 | 95 | 5.0 | 6.0 | 0.00 | 0.07 | 0.04 | 91 | 1016.6 |
| 20260507050006 | 54 | 103 | 4.0 | 9.0 | 0.00 | 0.07 | 0.04 | 92 | 1016.4 |
| 20260507045404 | 54 | 109 | 5.0 | 9.0 | 0.00 | 0.07 | 0.04 | 93 | 1016.5 |
| 20260507044505 | 54 | 116 | 5.0 | 9.0 | 0.00 | 0.07 | 0.04 | 93 | 1016.4 |
| 20260507043605 | 54 | 113 | 5.0 | 9.0 | 0.01 | 0.08 | 0.04 | 94 | 1016.2 |
| 20260507042704 | 53 | 117 | 6.0 | 8.0 | 0.01 | 0.08 | 0.04 | 94 | 1016.2 |
| 20260507041805 | 53 | 115 | 5.0 | 11.0 | 0.01 | 0.08 | 0.04 | 94 | 1016.3 |
| 20260507040911 | 54 | 121 | 5.0 | 10.0 | 0.01 | 0.08 | 0.04 | 94 | 1016.2 |
| 20260507040004 | 54 | 116 | 5.0 | 9.0 | 0.02 | 0.08 | 0.04 | 94 | 1016.2 |
| 20260507035404 | 54 | 119 | 4.0 | 7.0 | 0.02 | 0.08 | 0.04 | 94 | 1016.4 |
| 20260507034505 | 54 | 120 | 4.0 | 8.0 | 0.02 | 0.08 | 0.04 | 93 | 1016.2 |
| 20260507033604 | 54 | 118 | 5.0 | 9.0 | 0.02 | 0.07 | 0.04 | 93 | 1016.3 |
| 20260507032704 | 54 | 103 | 6.0 | 11.0 | 0.02 | 0.07 | 0.04 | 93 | 1016.0 |
| 20260507031806 | 54 | 109 | 5.0 | 9.0 | 0.02 | 0.07 | 0.04 | 93 | 1016.0 |
| 20260507030906 | 54 | 115 | 6.0 | 10.0 | 0.02 | 0.07 | 0.03 | 92 | 1016.1 |
| 20260507030005 | 54 | 98 | 7.0 | 10.0 | 0.01 | 0.07 | 0.03 | 92 | 1015.9 |
| 20260507025426 | 54 | 100 | 6.0 | 10.0 | 0.01 | 0.06 | 0.02 | 91 | 1016.2 |
| 20260507024525 | 53 | 107 | 5.0 | 9.0 | 0.00 | 0.06 | 0.02 | 91 | 1016.2 |
| 20260507023607 | 54 | 113 | 5.0 | 10.0 | 0.01 | 0.06 | 0.02 | 90 | 1016.3 |
| 20260507022704 | 54 | 137 | 4.0 | 10.0 | 0.01 | 0.06 | 0.02 | 90 | 1016.2 |
| 20260507021805 | 54 | 128 | 3.0 | 5.0 | 0.01 | 0.06 | 0.02 | 90 | 1016.1 |
| 20260507020905 | 54 | 115 | 4.0 | 9.0 | 0.01 | 0.06 | 0.02 | 89 | 1016.2 |
| 20260507020004 | 54 | 112 | 5.0 | 9.0 | 0.01 | 0.06 | 0.02 | 88 | 1016.2 |
| 20260507015405 | 54 | 106 | 5.0 | 11.0 | 0.01 | 0.05 | 0.01 | 88 | 1015.9 |
| 20260507014525 | 55 | 99 | 6.0 | 11.0 | 0.01 | 0.05 | 0.01 | 86 | 1016.0 |
| 20260507013607 | 55 | 110 | 5.0 | 9.0 | 0.00 | 0.05 | 0.01 | 85 | 1015.9 |
| 20260507012704 | 55 | 109 | 4.0 | 10.0 | 0.00 | 0.05 | 0.01 | 84 | 1016.0 |
| 20260507011825 | 55 | 100 | 3.0 | 9.0 | 0.00 | 0.05 | 0.01 | 87 | 1015.9 |
| 20260507010904 | 55 | 97 | 5.0 | 10.0 | 0.00 | 0.05 | 0.01 | 87 | 1015.9 |
| 20260507010008 | 54 | 90 | 5.0 | 10.0 | 0.00 | 0.04 | 0.00 | 89 | 1016.1 |
| 20260507005425 | 54 | 91 | 5.0 | 10.0 | 0.00 | 0.04 | 0.00 | 90 | 1016.2 |
| 20260507004505 | 54 | 115 | 5.0 | 12.0 | 0.00 | 0.04 | 0.00 | 92 | 1016.1 |
| 20260507003605 | 54 | 105 | 5.0 | 12.0 | 0.00 | 0.04 | 0.00 | 93 | 1016.2 |
| 20260507002704 | 54 | 106 | 5.0 | 11.0 | 0.00 | 0.04 | 0.00 | 94 | 1016.3 |
| 20260507001804 | 53 | 92 | 5.0 | 9.0 | 0.00 | 0.04 | 0.00 | 94 | 1016.1 |
| 20260507000904 | 53 | 110 | 6.0 | 12.0 | 0.00 | 0.04 | 0.00 | 94 | 1016.1 |
| 20260507000004 | 53 | 116 | 6.0 | 12.0 | 0.00 | 0.04 | 0.00 | 94 | 1016.2 |
| 20260506235404 | 53 | 120 | 6.0 | 14.0 | 0.00 | 0.04 | 0.00 | 93 | 1016.3 |